Location: Lecco
(45.8566°N, 9.3977°E)
Time: 18:26:21
(UTC+02:00)

Vanguard 2 - All Passes

Search period start: 14 August 2020 00:00
Search period end: 24 August 2020 00:00
Orbit: 552 x 2938 km, 32.9° (Epoch: 14 August)

Date Brightness Start Highest point End Pass type
(mag) Time Alt. Az. Time Alt. Az. Time Alt. Az.
14 Aug - 01:10:06 10° W 01:21:59 33° SSW 01:29:59 10° SSE visible
14 Aug - 03:27:37 10° WSW 03:29:08 10° SW 03:30:34 10° SW visible
14 Aug - 16:55:50 10° SE 16:59:40 11° SE 17:03:32 10° ESE daylight
14 Aug - 18:54:59 10° SSW 19:09:03 31° SSE 19:22:06 10° E daylight
14 Aug - 21:03:23 10° SW 21:19:45 46° S 21:32:37 10° ESE visible
14 Aug - 23:14:58 10° WSW 23:30:21 46° S 23:40:55 10° ESE visible
15 Aug - 01:28:21 10° W 01:39:18 28° SSW 01:46:57 10° SSE visible
15 Aug - 17:08:00 10° SSE 17:16:49 16° SE 17:25:50 10° ESE daylight
15 Aug - 19:11:33 10° SSW 19:26:33 36° SSE 19:40:23 10° E daylight
15 Aug - 21:20:52 10° WSW 21:37:28 49° S 21:50:24 10° ESE visible
15 Aug - 23:32:53 10° W 23:47:58 44° SSW 23:58:23 10° SE visible
16 Aug - 01:46:50 10° W 01:56:30 23° SW 02:03:35 10° S visible
16 Aug - 17:22:51 10° S 17:34:02 22° SE 17:45:34 10° E daylight
16 Aug - 19:28:28 10° SW 19:44:07 41° SSE 19:58:27 10° E daylight
16 Aug - 21:38:29 10° WSW 21:55:11 50° S 22:08:06 10° ESE visible
16 Aug - 23:50:52 10° W 00:05:28 40° SSW 00:15:41 10° SE visible
17 Aug - 02:05:44 10° W 02:13:35 18° SW 02:19:44 10° S visible
17 Aug - 17:38:39 10° SSW 17:51:17 27° SE 18:04:29 10° E daylight
17 Aug - 19:45:37 10° SW 20:01:44 46° SSE 20:16:25 10° E daylight
17 Aug - 21:56:13 10° WSW 22:12:54 50° S 22:25:45 10° ESE visible
18 Aug - 00:08:58 10° W 00:22:54 36° SSW 00:32:49 10° SSE visible
18 Aug - 02:25:38 10° WSW 02:30:35 13° SW 02:34:51 10° SSW visible
18 Aug - 15:54:44 10° SSE 15:59:43 12° SE 16:04:55 10° ESE daylight
18 Aug - 17:55:00 10° SSW 18:08:38 33° SSE 18:22:59 10° E daylight
18 Aug - 20:02:58 10° WSW 20:19:25 49° S 20:34:16 10° ESE daylight
18 Aug - 22:14:03 10° WSW 22:30:35 49° SSW 22:43:16 10° ESE visible
19 Aug - 00:27:13 10° W 00:40:13 31° SSW 00:49:44 10° SSE visible
19 Aug - 16:08:07 10° SSE 16:16:44 17° SE 16:26:14 10° E daylight
19 Aug - 18:11:43 10° SW 18:26:03 38° SSE 18:41:13 10° E daylight
19 Aug - 20:20:30 10° WSW 20:37:08 51° S 20:52:03 10° ESE visible
19 Aug - 22:31:57 10° W 22:48:12 46° SSW 23:00:42 10° SE visible
20 Aug - 00:45:43 10° W 00:57:24 25° SW 01:06:18 10° S visible
20 Aug - 16:23:23 10° S 16:33:50 23° SE 16:45:44 10° E daylight
20 Aug - 18:28:45 10° SW 18:43:35 43° SSE 18:59:16 10° E daylight
20 Aug - 20:38:09 10° WSW 20:54:51 52° S 21:09:46 10° ESE visible
20 Aug - 22:49:56 10° W 23:05:44 42° SSW 23:17:58 10° SE visible
21 Aug - 01:04:37 10° W 01:14:30 20° SW 01:22:23 10° S visible
21 Aug - 16:39:25 10° SSW 16:51:01 28° SE 17:04:33 10° E daylight
21 Aug - 18:45:59 10° SW 19:01:09 47° SSE 19:17:14 10° E daylight
21 Aug - 20:55:53 10° WSW 21:12:35 52° S 21:27:23 10° ESE visible
21 Aug - 23:08:03 10° W 23:23:10 37° SSW 23:35:02 10° SSE visible
22 Aug - 01:24:22 10° WSW 01:31:29 15° SW 01:37:34 10° SSW visible
22 Aug - 14:55:40 10° SE 14:59:57 12° SE 15:04:36 10° ESE daylight
22 Aug - 16:55:57 10° SSW 17:08:17 34° SSE 17:22:59 10° E daylight
22 Aug - 19:03:24 10° WSW 19:18:49 50° S 19:35:05 10° ESE daylight
22 Aug - 21:13:42 10° W 21:30:16 50° SSW 21:44:54 10° ESE visible
22 Aug - 23:26:19 10° W 23:40:29 32° SSW 23:51:51 10° SSE visible
23 Aug - 15:09:25 10° SSE 15:16:54 17° SE 15:25:43 10° E daylight
23 Aug - 17:12:48 10° SW 17:25:39 39° SSE 17:41:12 10° E daylight
23 Aug - 19:20:57 10° WSW 19:36:32 52° S 19:52:53 10° ESE daylight
23 Aug - 21:31:36 10° W 21:47:54 46° SSW 22:02:17 10° SE visible
